Location: ????????
(55.6773°N, 38.2421°E)
Time: 08:01:15
(UTC+00:00)

Cosmos 2181 Rocket - Pass Details

Date: 23 May 2024
Orbit: 951 x 1015 km, 82.9° (Epoch: 23 June)

Event Time Altitude Azimuth Distance (km) Brightness Sun altitude
Rises 00:01:52 0° 347° (NNW) 3,754 7.7 -6.7°
Reaches altitude 10° 00:04:25 10° 346° (NNW) 2,793 7.0 -6.4°
Maximum altitude 00:10:49 73° 264° (W) 1,043 4.1 -5.9°
Drops below altitude 10° 00:17:04 10° 181° (S) 2,732 5.9 -5.3°
Sets 00:19:33 0° 179° (S) 3,667 6.6 -5.1°
